x

South Brooks (46132) Wave Buoy

11:00am - Mon 27th Apr 2015 All times are PDT. -7 hours from GMT.

  • Sig Wave height 8.5ft
  • Peak Period 11s
  • Wind
    22mph, 27mph gusts
  • Sea Temp 51°f
  • Air Temp 52°f
  • Sea Pressure 1016.3mb
  • South Brooks
  • South Brooks

More Historic Weather Station data

Upgrade to MSW Pro to gain access to the past 30 days of data for over 8000 Wavebouys and Weather Stations around the globe.

Join Pro

Comparision Forecast

View Surf forecast
   
Mon 04/27 11:00am 8.5ft 11s 22 27 mph 1016.3mb 51f 52f
10:00am 8.5ft 12s 25 29 mph 1016.3mb 51f 52f
9:00am 8ft 7s 22 27 mph 1016.6mb 51f 52f
8:00am 10ft 10s 20 25 mph 1016.8mb 51f 51f
7:00am 10ft 8s 22 27 mph 1017.2mb 51f 51f
6:00am 10ft 9s 22 29 mph 1017.1mb 51f 51f
5:00am 9.5ft 10s 18 22 mph 1018.2mb 51f 51f
4:00am 10ft 8s 16 18 mph 1018.5mb 51f 51f
3:00am 10ft 8s 16 18 mph 1018.9mb 51f 51f
2:00am 10ft 8s 20 25 mph 1019mb 51f 51f
1:00am 10ft 8s 22 29 mph 1018.6mb 51f 51f
12:00am 10.5ft 9s 22 27 mph 1019.3mb 51f 51f
Sun 04/26 11:00pm 10ft 8s 25 29 mph 1019mb 51f 51f
10:00pm 10ft 9s 25 29 mph 1018.5mb 51f 50f
9:00pm 10.5ft 9s 22 27 mph 1018.2mb 51f 51f
8:00pm 12ft 9s 20 27 mph 1018.1mb 51f 51f
7:00pm 14ft 9s 22 31 mph 1017.7mb 51f 51f
6:00pm 15ft 10s 25 31 mph 1017.2mb 51f 50f
5:00pm 15.5ft 9s 29 36 mph 1016.8mb 51f 49f
4:00pm 14.5ft 9s 34 45 mph 1016.4mb 51f 49f
3:00pm 16ft 8s 38 47 mph 1015.9mb 51f 48f
2:00pm 15ft 9s 38 51 mph 1015.5mb 51f 49f
1:00pm 16ft 8s 34 43 mph 1015.5mb 51f 49f
12:00pm 15ft 9s 36 47 mph 1015mb 51f 49f
10:00am 13.5ft 8s 38 49 mph 1013.8mb 51f 49f
9:00am 12ft 7s 38 45 mph 1013.8mb 51f 49f
8:00am 11ft 7s 36 45 mph 1013.4mb 51f 49f
7:00am 9.5ft 7s 31 40 mph 1013.4mb 51f 50f
6:00am 9ft 6s 34 40 mph 1012.7mb 51f 50f
5:00am 7ft 6s 29 36 mph 1013.2mb 51f 50f
4:00am 6.5ft 6s 27 36 mph 1013.6mb 51f 51f
3:00am 6ft 5s 27 34 mph 1013.9mb 51f 51f
2:00am 5ft 5s 27 34 mph 1014mb 51f 51f
1:00am 4.5ft 4s 25 31 mph 1014.4mb 51f 51f
12:00am 4ft 15s 20 27 mph 1014.8mb 51f 51f
Sat 04/25 11:00pm 4ft 8s 20 25 mph 1014.9mb 52f 51f
10:00pm 4ft 9s 18 20 mph 1015.5mb 52f 50f
9:00pm 4.5ft 9s 16 18 mph 1015.6mb 52f 50f
8:00pm 4.5ft 15s 13 16 mph 1015.6mb 52f 50f
7:00pm 4.5ft 9s 11 13 mph 1015.7mb 52f 50f
6:00pm 4.5ft 8s 11 13 mph 1016.1mb 52f 50f
5:00pm 4.5ft 10s 11 13 mph 1016mb 53f 51f
4:00pm 4.5ft 8s 7 9 mph 1016.1mb 53f 51f
3:00pm 4.5ft 10s 4 7 mph 1016.1mb 53f 51f
2:00pm 5ft 9s 4 7 mph 1016.2mb 53f 50f
1:00pm 4.5ft 10s 7 9 mph 1016.1mb 53f 50f
12:00pm 4.5ft 9s 2 4 mph 1015.8mb 53f 50f
11:00am 4.5ft 10s  -  2 mph 1015.6mb 52f 50f
10:00am 5ft 9s 2 4 mph 1015.2mb 51f 49f
9:00am 6ft 10s 4 7 mph 1014.7mb 51f 49f
8:00am 6.5ft 10s 7 9 mph 1014.5mb 51f 49f
7:00am 6ft 10s 9 11 mph 1014mb 51f 49f
6:00am 6ft 10s 4 7 mph 1013.5mb 51f 48f
5:00am 6ft 10s 4 9 mph 1013.4mb 51f 48f
4:00am 6.5ft 10s 7 9 mph 1013.3mb 51f 48f
3:00am 6ft 10s 9 11 mph 1013.1mb 51f 48f
2:00am 6ft 11s 11 13 mph 1012.9mb 51f 49f
1:00am 6ft 11s 11 16 mph 1012.6mb 51f 49f
12:00am 6ft 11s 13 16 mph 1012.3mb 51f 49f
Fri 04/24 11:00pm 6ft 12s 13 16 mph 1012.1mb 51f 49f
10:00pm 7ft 11s 13 18 mph 1011.9mb 51f 49f
9:00pm 7ft 10s 13 16 mph 1011.5mb 51f 49f
8:00pm 8ft 11s 13 18 mph 1011mb 51f 49f
7:00pm 8.5ft 11s 16 20 mph 1010.7mb 51f 49f
6:00pm 8ft 12s 16 18 mph 1010.2mb 51f 49f
5:00pm 9ft 13s 18 20 mph 1010mb 51f 49f
4:00pm 10ft 12s 16 18 mph 1009.6mb 51f 49f
3:00pm 9ft 11s 13 18 mph 1009.3mb 51f 48f
2:00pm 9ft 11s 13 18 mph 1009mb 51f 48f
1:00pm 9.5ft 11s 13 18 mph 1008.8mb 51f 47f
12:00pm 9.5ft 12s 13 18 mph 1008.5mb 51f 47f
11:00am 12ft 13s 16 20 mph 1007.9mb 51f 47f
10:00am 10.5ft 14s 16 18 mph 1007.6mb 51f 47f
9:00am 10.5ft 13s 16 18 mph 1007.1mb 51f 47f
8:00am 12ft 14s 16 18 mph 1006.8mb 51f 46f
7:00am 12ft 14s 16 18 mph 1006.5mb 51f 47f
6:00am 13ft 14s 13 16 mph 1006mb 51f 47f
5:00am 12ft 15s 11 16 mph 1005.8mb 51f 46f
4:00am 13ft 15s 9 11 mph 1005.6mb 51f 46f
3:00am 13ft 15s 2 7 mph 1005.5mb 51f 46f
2:00am 13.5ft 14s 7 9 mph 1005.3mb 51f 45f
1:00am 14ft 16s 11 18 mph 1005.1mb 51f 45f
12:00am 13ft 16s 13 18 mph 1005mb 51f 45f
Thu 04/23 11:00pm 14ft 14s 16 25 mph 1004.7mb 51f 45f
10:00pm 14.5ft 14s 7 13 mph 1004.5mb 51f 45f
9:00pm 12ft 14s 11 16 mph 1004.3mb 51f 45f
8:00pm 11ft 11s 2 7 mph 1004.2mb 51f 44f